Weather in Borodianka

Ukraine / Kyiv Region     50°38′44″N   29°55′14″E
temp.,
°C
wind,
m/s
gust,
m/s
humid.,
%
clouds,
%
prec.,
mm/h
press.,
hPa
HPBL,
m
18 october, mon
mon1800:00+5wsw2568100 0.0 1021117
03:00+5wsw377398 0.0 1020160
06:00+5wsw3969100 0.0 1019291
09:00+7w4962100 0.0 1020415
12:00+9w5758100 0.0 1020967
15:00+10w5653100 0.0 10191255
18:00+9wnw3762100 0.0 1019235
21:00+7wnw3783100 0.1 1020291
19 october, tue
tue1900:00+6wnw2586100 1.1 1021302
03:00+4nw49942 1.3 1022288
06:00+2nw39910 0.0 1024232
09:00+3wnw39825 0.0 1025297
12:00+8nw57545 0.0 10261077
15:00+9nw574161 0.0 10261279
18:00+5nw33635 0.0 102655
21:00+3wnw227495 0.0 102737
20 october, wed
wed2000:00+2w2272100 0.0 102826
03:00+2sw2270100 0.0 102822
06:00+2ssw2366100 0.0 102764
09:00+5s3751100 0.0 1026240
12:00+10s5842100 0.0 1024518
15:00+14ssw61049100 0.0 10211077
18:00+14ssw61252100 0.0 1019799
21:00+13ssw61351100 0.0 1017697
21 october, thu
thu2100:00+13sw61450100 0.0 1016608
03:00+12ssw51354100 0.0 1015380
06:00+10ssw51260100 0.0 1014306
09:00+11ssw5136487 0.0 1013368
12:00+16sw61146100 0.0 1012573
15:00+19ssw61142100 0.0 1010857
18:00+16sw61346100 0.0 1009555
21:00+14ssw51354100 0.0 1008396
22 october, fri
fri2200:00+12wsw5145927 0.0 1009512
03:00+10wsw4107670 0.0 1010298
06:00+9wsw398639 0.0 1011218
09:00+10sw388084 0.0 1012195
12:00+16sw465660 0.0 1011638
15:00+18sw574346 0.0 10101214
18:00+15s375793 0.0 1010125
21:00+14s41156100 0.0 1009274